Change the Weather History Date:

Sunday, March 10, 2013

  Actual Average (KHTL) Record (KHTL)
Temperature  
Mean Temperature 37 °F 27 °F  
Max Temperature 41 °F 37 °F 59 °F (1977)
Min Temperature 33 °F 16 °F -17 °F (1972)
Degree Days  
Heating Degree Days 28 38  
Month to date heating degree days 401  
Since 1 July heating degree days 6273  
Cooling Degree Days 0 0  
Month to date cooling degree days 0  
Year to date cooling degree days 0  
Moisture  
Dew Point 37 °F    
Average Humidity 97    
Maximum Humidity 100    
Minimum Humidity 81    
Precipitation  
Precipitation 0.00 in 0.06 in 0.50 in (1986)
Month to date precipitation 0.55  
Year to date precipitation 3.27  
Snow  
Snow 0.00 in 0.30 in 2.80 in (1992)
Month to date snowfall 3.3  
Since 1 July snowfall 57.8  
Snow Depth -    
Sea Level Pressure  
Sea Level Pressure 29.85 in    
Wind  
Wind Speed 5 mph (SE)    
Max Wind Speed 9 mph    
Max Gust Speed -    
Visibility 4 miles    
Events Fog , Rain    
T = Trace of Precipitation, MM = Missing Value Source: NWS Daily Summary

Daily Weather History Graph

Daily Weather History Graph

Search for Another Location

Airport or City:

Trip Planner

Search our weather history database for the weather conditions in past years. The results will help you decide how hot, cold, wet, or windy it might be!

Date:

Astronomy

Mar. 10, 2013 Rise Set
Actual Time 7:59 AM EDT 7:38 PM EDT
Civil Twilight 7:30 AM EDT 8:08 PM EDT
Nautical Twilight 6:57 AM EDT 8:41 PM EDT
Astronomical Twilight 6:22 AM EDT 9:16 PM EDT
Moon 7:01 AM EDT (3/10) 6:45 PM EDT (3/10)
Length of Visible Light 12h 37m
Length of Day
11h 38m
Waning Crescent, 2% of the Moon is Illuminated
Mar 10
Waning Crescent
Mar 11
New
Mar 19
First Quarter
Mar 27
Full
Apr 3
Last Quarter

Hourly Weather History & Observations

Time (EDT) Temp. Windchill Dew Point Humidity Pressure Visibility Wind Dir Wind Speed Gust Speed Precip Events Conditions
12:18 AM 33.8 °F 26.4 °F 33.8 °F 100% 29.97 in 7.0 mi ESE 9.2 mph - N/A   Overcast
12:39 AM 33.8 °F 26.4 °F 33.8 °F 100% 29.96 in 7.0 mi ESE 9.2 mph - N/A   Overcast
1:26 AM 33.8 °F 28.6 °F 33.8 °F 100% 29.94 in 7.0 mi ESE 5.8 mph - N/A   Overcast
1:39 AM 33.8 °F 28.6 °F 33.8 °F 100% 29.94 in 7.0 mi ESE 5.8 mph - N/A   Overcast
3:01 AM 35.6 °F 31.7 °F 33.8 °F 93% 29.93 in 7.0 mi SE 4.6 mph - N/A   Overcast
3:19 AM 35.6 °F - 33.8 °F 93% 29.93 in 10.0 mi Calm Calm - N/A   Overcast
3:39 AM 35.6 °F 32.8 °F 33.8 °F 93% 29.92 in 7.0 mi SSE 3.5 mph - N/A Rain Light Rain
3:59 AM 35.6 °F 28.6 °F 33.8 °F 93% 29.89 in 7.0 mi SSE 9.2 mph - N/A Rain Light Rain
4:20 AM 35.6 °F 31.7 °F 33.8 °F 93% 29.89 in 7.0 mi SSE 4.6 mph - N/A   Overcast
4:45 AM 35.6 °F 29.9 °F 33.8 °F 93% 29.87 in 10.0 mi SSE 6.9 mph - N/A   Overcast
5:20 AM 35.6 °F 29.9 °F 33.8 °F 93% 29.86 in 10.0 mi SSE 6.9 mph - N/A   Overcast
5:40 AM 35.6 °F 31.7 °F 32.0 °F 87% 29.86 in 10.0 mi SSE 4.6 mph - N/A   Overcast
5:59 AM 35.6 °F 32.8 °F 32.0 °F 87% 29.86 in 10.0 mi SSE 3.5 mph - N/A   Overcast
6:19 AM 35.6 °F - 32.0 °F 87% 29.86 in 10.0 mi Calm Calm - N/A Rain Rain
6:39 AM 35.6 °F - 33.8 °F 93% 29.86 in 10.0 mi Calm Calm - N/A   Overcast
7:00 AM 35.6 °F 32.8 °F 32.0 °F 87% 29.85 in 10.0 mi SSE 3.5 mph - N/A   Overcast
7:19 AM 35.6 °F - 32.0 °F 87% 29.86 in 10.0 mi Calm Calm - N/A   Overcast
7:45 AM 35.6 °F 32.8 °F 32.0 °F 87% 29.86 in 7.0 mi SSW 3.5 mph - N/A Rain Light Rain
8:19 AM 35.6 °F 32.8 °F 32.0 °F 87% 29.86 in 4.0 mi South 3.5 mph - N/A Rain Rain
8:40 AM 35.6 °F 32.8 °F 32.0 °F 87% - 3.0 mi SE 3.5 mph - N/A Rain Light Rain
8:59 AM 35.6 °F 32.8 °F 35.6 °F 100% 29.84 in 4.0 mi SSE 3.5 mph - N/A Rain Light Rain
9:19 AM 35.6 °F 32.8 °F 35.6 °F 100% 29.84 in 5.0 mi SSE 3.5 mph - N/A   Overcast
9:39 AM 35.6 °F 29.9 °F 35.6 °F 100% 29.86 in 5.0 mi South 6.9 mph - N/A   Light Drizzle
9:59 AM 35.6 °F 30.7 °F 33.8 °F 93% 29.86 in 7.0 mi SSW 5.8 mph - N/A   Overcast
10:23 AM 37.4 °F - 32.0 °F 81% - 5.0 mi Calm Calm - N/A Rain Rain
10:43 AM 37.4 °F - 37.4 °F 100% 29.84 in 2.5 mi Calm Calm - N/A Rain Light Rain
10:59 AM 37.4 °F - 37.4 °F 100% 29.83 in 2.0 mi Calm Calm - N/A   Drizzle
11:19 AM 37.4 °F 34.9 °F 37.4 °F 100% 29.82 in 1.5 mi SE 3.5 mph - N/A   Drizzle
11:39 AM 37.4 °F 33.8 °F 37.4 °F 100% 29.82 in 2.0 mi SSE 4.6 mph - N/A Rain Light Rain
12:20 PM 39.2 °F 33.0 °F 39.2 °F 100% 29.83 in 3.0 mi South 9.2 mph - N/A   Drizzle
12:40 PM 39.2 °F 33.0 °F 39.2 °F 100% 29.83 in 2.5 mi South 9.2 mph - N/A Rain Light Rain
1:00 PM 39.2 °F 35.9 °F 39.2 °F 100% 29.82 in 2.5 mi South 4.6 mph - N/A Rain Rain
1:20 PM 41.0 °F 38.0 °F 41.0 °F 100% 29.82 in 4.0 mi SSW 4.6 mph - N/A Rain Light Rain
1:44 PM 41.0 °F 36.4 °F 41.0 °F 100% 29.86 in 4.0 mi West 6.9 mph - N/A Rain Light Rain
1:59 PM 41.0 °F 37.1 °F 41.0 °F 100% 29.86 in 3.0 mi WSW 5.8 mph - N/A Rain Light Rain
2:19 PM - - - N/A% - 2.0 mi West 4.6 mph - N/A Rain Heavy Rain
2:39 PM 41.0 °F - 41.0 °F 100% 29.84 in 1.8 mi Calm Calm - N/A   Light Drizzle
2:59 PM 41.0 °F - 41.0 °F 100% 29.83 in 3.0 mi Calm Calm - N/A   Overcast
3:19 PM 41.0 °F - 41.0 °F 100% 29.84 in 4.0 mi Calm Calm - N/A   Overcast
3:59 PM 41.0 °F 39.0 °F 41.0 °F 100% 29.85 in 5.0 mi South 3.5 mph - N/A   Overcast
4:19 PM - - - N/A% - 5.0 mi Calm Calm - N/A Rain Light Rain
4:39 PM 39.2 °F 35.9 °F 39.2 °F 100% 29.84 in 0.2 mi NNE 4.6 mph - N/A Rain Rain
4:59 PM 39.2 °F - 39.2 °F 100% 29.85 in 0.2 mi Calm Calm - N/A Rain Light Rain
5:19 PM 39.2 °F 35.9 °F 39.2 °F 100% 29.84 in 0.2 mi NE 4.6 mph - N/A Fog Fog
5:39 PM 39.2 °F 37.0 °F 39.2 °F 100% 29.84 in 0.2 mi North 3.5 mph - N/A   Light Drizzle
5:59 PM 37.4 °F - 37.4 °F 100% 29.85 in 0.2 mi Calm Calm - N/A Rain Rain
6:19 PM 39.2 °F - 39.2 °F 100% 29.84 in 0.2 mi Calm Calm - N/A Rain Light Rain
6:39 PM 37.4 °F 32.8 °F 37.4 °F 100% 29.83 in 0.2 mi ENE 5.8 mph - N/A   Light Drizzle
6:59 PM 39.2 °F 35.0 °F 39.2 °F 100% 29.85 in 0.2 mi East 5.8 mph - N/A Fog Fog
7:19 PM 37.4 °F 32.8 °F 37.4 °F 100% 29.86 in 0.2 mi East 5.8 mph - N/A Rain Rain
7:39 PM 39.2 °F 35.0 °F 39.2 °F 100% 29.84 in 0.5 mi East 5.8 mph - N/A Rain Heavy Rain
7:59 PM 39.2 °F 34.2 °F 39.2 °F 100% 29.83 in 0.5 mi East 6.9 mph - N/A Rain Rain
8:19 PM 39.2 °F 35.0 °F 39.2 °F 100% 29.83 in 1.0 mi East 5.8 mph - N/A Rain Light Rain
8:39 PM 39.2 °F 35.9 °F 39.2 °F 100% 29.84 in 0.2 mi East 4.6 mph - N/A Rain Rain
8:59 PM 37.4 °F 32.8 °F 37.4 °F 100% 29.83 in 0.2 mi ENE 5.8 mph - N/A Rain Rain
9:19 PM 37.4 °F - 37.4 °F 100% 29.84 in 0.5 mi Calm Calm - N/A Rain Rain
9:39 PM 37.4 °F 33.8 °F 37.4 °F 100% 29.83 in 0.5 mi East 4.6 mph - N/A Rain Light Rain
9:59 PM 37.4 °F 32.8 °F 37.4 °F 100% 29.82 in 0.8 mi NE 5.8 mph - N/A Rain Light Rain
10:19 PM 37.4 °F 33.8 °F 37.4 °F 100% 29.83 in 0.8 mi East 4.6 mph - N/A Rain Rain
10:39 PM 37.4 °F 32.8 °F 37.4 °F 100% 29.82 in 1.0 mi ENE 5.8 mph - N/A Rain Rain
10:59 PM 37.4 °F 34.9 °F 37.4 °F 100% 29.82 in 1.2 mi East 3.5 mph - N/A Rain Rain
11:20 PM 37.4 °F 32.1 °F 37.4 °F 100% 29.81 in 1.2 mi East 6.9 mph - N/A Rain Rain
11:39 PM 37.4 °F 32.8 °F 37.4 °F 100% 29.80 in 2.5 mi East 5.8 mph - N/A Rain Rain
12:00 AM 39.2 °F 35.9 °F 39.2 °F 100% 29.79 in 7.0 mi ESE 4.6 mph - N/A Rain Rain
12:19 AM 37.4 °F 32.1 °F 37.4 °F 100% 29.78 in 5.0 mi East 6.9 mph - N/A Rain Rain
12:39 AM 37.4 °F 32.1 °F 37.4 °F 100% 29.77 in 5.0 mi East 6.9 mph - N/A Rain Rain
12:59 AM 37.4 °F 31.4 °F 37.4 °F 100% 29.74 in 5.0 mi East 8.1 mph - N/A   Overcast